Time,TemperatureF,DewpointF,PressureIn,WindDirection,WindDirectionDegrees,WindSpeedMPH,WindSpeedGustMPH,Humidity,HourlyPrecipIn,Conditions,Clouds,dailyrainin,SolarRadiationWatts/m^2,SoftwareType,DateUTC
2013-09-27 00:02:00,56.0,33.0,-100.00,WSW,258,14.0,39.0,41,0.00,,,0.00,0.000000,,2013-09-27 06:02:00,
2013-09-27 00:11:00,56.0,33.0,-100.00,WSW,258,14.0,39.0,41,0.00,,,0.00,0.000000,,2013-09-27 06:11:00,
2013-09-27 00:22:00,56.0,33.0,-100.00,WSW,258,14.0,39.0,41,0.00,,,0.00,0.000000,,2013-09-27 06:22:00,
2013-09-27 00:32:00,56.0,33.0,-100.00,WSW,258,14.0,39.0,41,0.00,,,0.00,0.000000,,2013-09-27 06:32:00,
2013-09-27 00:52:00,52.0,33.0,-100.00,SSW,209,2.0,27.0,49,0.00,,,0.00,0.000000,,2013-09-27 06:52:00,
2013-09-27 01:02:00,52.0,33.0,-100.00,SSW,209,2.0,27.0,49,0.00,,,0.00,0.000000,,2013-09-27 07:02:00,
2013-09-27 01:12:00,52.0,33.0,-100.00,SSW,209,2.0,27.0,49,0.00,,,0.00,0.000000,,2013-09-27 07:12:00,
2013-09-27 01:22:00,52.0,33.0,-100.00,SSW,209,2.0,27.0,49,0.00,,,0.00,0.000000,,2013-09-27 07:22:00,
2013-09-27 01:32:00,52.0,33.0,-100.00,SSW,209,2.0,27.0,49,0.00,,,0.00,0.000000,,2013-09-27 07:32:00,
2013-09-27 01:53:00,46.0,41.0,-100.00,West,260,12.0,19.0,81,0.09,,,0.09,0.000000,,2013-09-27 07:53:00,
2013-09-27 02:02:00,46.0,41.0,-100.00,West,260,12.0,19.0,81,0.09,,,0.09,0.000000,,2013-09-27 08:02:00,
2013-09-27 02:11:00,46.0,41.0,-100.00,West,260,12.0,19.0,81,0.09,,,0.09,0.000000,,2013-09-27 08:11:00,
2013-09-27 02:22:00,46.0,41.0,-100.00,West,260,12.0,19.0,81,0.09,,,0.09,0.000000,,2013-09-27 08:22:00,
2013-09-27 02:32:00,46.0,41.0,-100.00,West,260,12.0,19.0,81,0.09,,,0.09,0.000000,,2013-09-27 08:32:00,
2013-09-27 02:52:00,45.0,41.0,-100.00,WSW,237,11.0,21.0,86,0.06,,,0.15,0.000000,,2013-09-27 08:52:00,
2013-09-27 03:02:00,45.0,41.0,-100.00,WSW,237,11.0,21.0,86,0.06,,,0.15,0.000000,,2013-09-27 09:02:00,
2013-09-27 03:11:00,45.0,41.0,-100.00,WSW,237,11.0,21.0,86,0.06,,,0.15,0.000000,,2013-09-27 09:11:00,
2013-09-27 03:22:00,45.0,41.0,-100.00,WSW,237,11.0,21.0,86,0.06,,,0.15,0.000000,,2013-09-27 09:22:00,
2013-09-27 03:33:00,45.0,41.0,-100.00,WSW,237,11.0,21.0,86,0.06,,,0.15,0.000000,,2013-09-27 09:33:00,
2013-09-27 03:53:00,42.0,38.0,-100.00,West,260,13.0,26.0,85,0.05,,,0.20,0.000000,,2013-09-27 09:53:00,
2013-09-27 04:03:00,42.0,38.0,-100.00,West,260,13.0,26.0,85,0.05,,,0.20,0.000000,,2013-09-27 10:03:00,
2013-09-27 04:12:00,42.0,38.0,-100.00,West,260,13.0,26.0,85,0.05,,,0.20,0.000000,,2013-09-27 10:12:00,
2013-09-27 04:23:00,42.0,38.0,-100.00,West,260,13.0,26.0,85,0.05,,,0.20,0.000000,,2013-09-27 10:23:00,
2013-09-27 04:33:00,42.0,38.0,-100.00,West,260,13.0,26.0,85,0.05,,,0.20,0.000000,,2013-09-27 10:33:00,
2013-09-27 04:52:00,42.0,39.0,-100.00,WSW,257,4.0,14.0,90,0.04,,,0.24,0.000000,,2013-09-27 10:52:00,
2013-09-27 05:02:00,42.0,39.0,-100.00,WSW,257,4.0,14.0,90,0.04,,,0.24,0.000000,,2013-09-27 11:02:00,
2013-09-27 05:12:00,42.0,39.0,-100.00,WSW,257,4.0,14.0,90,0.04,,,0.24,0.000000,,2013-09-27 11:12:00,
2013-09-27 05:22:00,42.0,39.0,-100.00,WSW,257,4.0,14.0,90,0.04,,,0.24,0.000000,,2013-09-27 11:22:00,
2013-09-27 05:33:00,42.0,39.0,-100.00,WSW,257,4.0,14.0,90,0.04,,,0.24,0.000000,,2013-09-27 11:33:00,
2013-09-27 05:52:00,42.0,39.0,-100.00,SSW,213,2.0,8.0,89,0.01,,,-99.99,0.000000,,2013-09-27 11:52:00,
2013-09-27 06:02:00,42.0,39.0,-100.00,SSW,213,2.0,8.0,89,0.01,,,-99.99,0.000000,,2013-09-27 12:02:00,
2013-09-27 06:12:00,42.0,39.0,-100.00,SSW,213,2.0,8.0,89,0.01,,,-99.99,0.000000,,2013-09-27 12:12:00,
2013-09-27 06:21:00,42.0,39.0,-100.00,SSW,213,2.0,8.0,89,0.01,,,-99.99,0.000000,,2013-09-27 12:21:00,
2013-09-27 06:32:00,42.0,39.0,-100.00,SSW,213,2.0,8.0,89,0.01,,,-99.99,0.000000,,2013-09-27 12:32:00,
2013-09-27 06:52:00,42.0,38.0,-100.00,WSW,248,4.0,14.0,87,0.00,,,0.25,0.000000,,2013-09-27 12:52:00,
2013-09-27 07:02:00,42.0,38.0,-100.00,WSW,248,4.0,14.0,87,0.00,,,0.25,0.000000,,2013-09-27 13:02:00,
2013-09-27 07:11:00,42.0,38.0,-100.00,WSW,248,4.0,14.0,87,0.00,,,0.25,0.000000,,2013-09-27 13:11:00,
2013-09-27 07:21:00,42.0,38.0,-100.00,WSW,248,4.0,14.0,87,0.00,,,0.25,0.000000,,2013-09-27 13:21:00,
2013-09-27 07:32:00,42.0,38.0,-100.00,WSW,248,4.0,14.0,87,0.00,,,0.25,0.000000,,2013-09-27 13:32:00,
2013-09-27 07:52:00,42.0,37.0,-100.00,SSW,193,4.0,15.0,82,0.01,,,0.26,1.000000,,2013-09-27 13:52:00,
2013-09-27 08:02:00,42.0,37.0,-100.00,SSW,193,4.0,15.0,82,0.01,,,0.26,1.000000,,2013-09-27 14:02:00,
2013-09-27 08:11:00,42.0,37.0,-100.00,SSW,193,4.0,15.0,82,0.01,,,0.26,1.000000,,2013-09-27 14:11:00,
2013-09-27 08:21:00,42.0,37.0,-100.00,SSW,193,4.0,15.0,82,0.01,,,0.26,1.000000,,2013-09-27 14:21:00,
2013-09-27 08:32:00,42.0,37.0,-100.00,SSW,193,4.0,15.0,82,0.01,,,0.26,1.000000,,2013-09-27 14:32:00,
2013-09-27 08:52:00,42.0,37.0,-100.00,SSE,159,4.0,12.0,83,0.00,,,0.26,16.000000,,2013-09-27 14:52:00,
2013-09-27 09:02:00,42.0,37.0,-100.00,SSE,159,4.0,12.0,83,0.00,,,0.26,16.000000,,2013-09-27 15:02:00,
2013-09-27 09:11:00,42.0,37.0,-100.00,SSE,159,4.0,12.0,83,0.00,,,0.26,16.000000,,2013-09-27 15:11:00,
2013-09-27 09:21:00,42.0,37.0,-100.00,SSE,159,4.0,12.0,83,0.00,,,0.26,16.000000,,2013-09-27 15:21:00,
2013-09-27 09:33:00,42.0,37.0,-100.00,SSE,159,4.0,12.0,83,0.00,,,0.26,16.000000,,2013-09-27 15:33:00,
2013-09-27 09:54:00,43.0,36.0,-100.00,SSE,168,5.0,14.0,77,0.00,,,0.26,77.000000,,2013-09-27 15:54:00,
2013-09-27 10:04:00,43.0,36.0,-100.00,SSE,168,5.0,14.0,77,0.00,,,0.26,77.000000,,2013-09-27 16:04:00,
2013-09-27 10:13:00,43.0,36.0,-100.00,SSE,168,5.0,14.0,77,0.00,,,0.26,77.000000,,2013-09-27 16:13:00,
2013-09-27 10:24:00,43.0,36.0,-100.00,SSE,168,5.0,14.0,77,0.00,,,0.26,77.000000,,2013-09-27 16:24:00,
2013-09-27 10:33:00,43.0,36.0,-100.00,SSE,168,5.0,14.0,77,0.00,,,0.26,77.000000,,2013-09-27 16:33:00,
2013-09-27 10:34:00,43.0,34.0,-100.00,WSW,251,11.0,20.0,69,0.00,,,0.26,185.000000,,2013-09-27 16:34:00,
2013-09-27 10:53:00,43.0,34.0,-100.00,WSW,251,11.0,20.0,69,0.00,,,0.26,185.000000,,2013-09-27 16:53:00,
2013-09-27 11:03:00,43.0,34.0,-100.00,WSW,251,11.0,20.0,69,0.00,,,0.26,185.000000,,2013-09-27 17:03:00,
2013-09-27 11:13:00,43.0,34.0,-100.00,WSW,251,11.0,20.0,69,0.00,,,0.26,185.000000,,2013-09-27 17:13:00,
2013-09-27 11:23:00,43.0,34.0,-100.00,WSW,251,11.0,20.0,69,0.00,,,0.26,185.000000,,2013-09-27 17:23:00,
2013-09-27 11:52:00,43.0,29.0,-100.00,WSW,253,13.0,26.0,57,0.00,,,0.26,322.000000,,2013-09-27 17:52:00,
2013-09-27 12:02:00,43.0,29.0,-100.00,WSW,253,13.0,26.0,57,0.00,,,0.26,322.000000,,2013-09-27 18:02:00,
2013-09-27 12:13:00,43.0,29.0,-100.00,WSW,253,13.0,26.0,57,0.00,,,0.26,322.000000,,2013-09-27 18:13:00,
2013-09-27 12:21:00,43.0,29.0,-100.00,WSW,253,13.0,26.0,57,0.00,,,0.26,322.000000,,2013-09-27 18:21:00,
2013-09-27 12:33:00,43.0,29.0,-100.00,WSW,253,13.0,26.0,57,0.00,,,0.26,322.000000,,2013-09-27 18:33:00,
2013-09-27 12:52:00,45.0,28.0,-100.00,WSW,255,12.0,24.0,51,0.00,,,0.26,382.000000,,2013-09-27 18:52:00,
2013-09-27 13:02:00,45.0,28.0,-100.00,WSW,255,12.0,24.0,51,0.00,,,0.26,382.000000,,2013-09-27 19:02:00,
2013-09-27 13:12:00,45.0,28.0,-100.00,WSW,255,12.0,24.0,51,0.00,,,0.26,382.000000,,2013-09-27 19:12:00,
2013-09-27 13:22:00,45.0,28.0,-100.00,WSW,255,12.0,24.0,51,0.00,,,0.26,382.000000,,2013-09-27 19:22:00,
2013-09-27 13:32:00,45.0,28.0,-100.00,WSW,255,12.0,24.0,51,0.00,,,0.26,382.000000,,2013-09-27 19:32:00,
2013-09-27 13:53:00,44.0,31.0,-100.00,South,176,5.0,24.0,59,0.00,,,0.26,173.000000,,2013-09-27 19:53:00,
2013-09-27 14:03:00,44.0,31.0,-100.00,South,176,5.0,24.0,59,0.00,,,0.26,173.000000,,2013-09-27 20:03:00,
2013-09-27 14:12:00,44.0,31.0,-100.00,South,176,5.0,24.0,59,0.00,,,0.26,173.000000,,2013-09-27 20:12:00,
2013-09-27 14:22:00,44.0,31.0,-100.00,South,176,5.0,24.0,59,0.00,,,0.26,173.000000,,2013-09-27 20:22:00,
2013-09-27 14:32:00,44.0,31.0,-100.00,South,176,5.0,24.0,59,0.00,,,0.26,173.000000,,2013-09-27 20:32:00,
2013-09-27 14:52:00,46.0,27.0,-100.00,West,268,14.0,26.0,48,0.00,,,0.26,366.000000,,2013-09-27 20:52:00,
2013-09-27 15:02:00,46.0,27.0,-100.00,West,268,14.0,26.0,48,0.00,,,0.26,366.000000,,2013-09-27 21:02:00,
2013-09-27 15:11:00,46.0,27.0,-100.00,West,268,14.0,26.0,48,0.00,,,0.26,366.000000,,2013-09-27 21:11:00,
2013-09-27 15:21:00,46.0,27.0,-100.00,West,268,14.0,26.0,48,0.00,,,0.26,366.000000,,2013-09-27 21:21:00,
2013-09-27 15:33:00,46.0,27.0,-100.00,West,268,14.0,26.0,48,0.00,,,0.26,366.000000,,2013-09-27 21:33:00,
2013-09-27 15:34:00,47.0,30.0,-100.00,WNW,292,13.0,25.0,51,0.00,,,0.26,717.000000,,2013-09-27 21:34:00,
2013-09-27 15:54:00,47.0,30.0,-100.00,WNW,292,13.0,25.0,51,0.00,,,0.26,717.000000,,2013-09-27 21:54:00,
2013-09-27 16:04:00,47.0,30.0,-100.00,WNW,292,13.0,25.0,51,0.00,,,0.26,717.000000,,2013-09-27 22:04:00,
2013-09-27 16:14:00,47.0,30.0,-100.00,WNW,292,13.0,25.0,51,0.00,,,0.26,717.000000,,2013-09-27 22:14:00,
2013-09-27 16:24:00,47.0,30.0,-100.00,WNW,292,13.0,25.0,51,0.00,,,0.26,717.000000,,2013-09-27 22:24:00,
2013-09-27 16:34:00,45.0,29.0,-100.00,WNW,292,13.0,29.0,54,0.00,,,0.26,467.000000,,2013-09-27 22:34:00,
2013-09-27 16:53:00,45.0,29.0,-100.00,WNW,292,13.0,29.0,54,0.00,,,0.26,467.000000,,2013-09-27 22:53:00,
2013-09-27 17:03:00,45.0,29.0,-100.00,WNW,292,13.0,29.0,54,0.00,,,0.26,467.000000,,2013-09-27 23:03:00,
2013-09-27 17:12:00,45.0,29.0,-100.00,WNW,292,13.0,29.0,54,0.00,,,0.26,467.000000,,2013-09-27 23:12:00,
2013-09-27 17:22:00,45.0,29.0,-100.00,WNW,292,13.0,29.0,54,0.00,,,0.26,467.000000,,2013-09-27 23:22:00,
2013-09-27 17:53:00,46.0,32.0,-100.00,WSW,251,6.0,22.0,58,0.00,,,0.26,351.000000,,2013-09-27 23:53:00,
2013-09-27 18:02:00,46.0,32.0,-100.00,WSW,251,6.0,22.0,58,0.00,,,0.26,351.000000,,2013-09-28 00:02:00,
2013-09-27 18:12:00,46.0,32.0,-100.00,WSW,251,6.0,22.0,58,0.00,,,0.26,351.000000,,2013-09-28 00:12:00,
2013-09-27 18:22:00,46.0,32.0,-100.00,WSW,251,6.0,22.0,58,0.00,,,0.26,351.000000,,2013-09-28 00:22:00,
2013-09-27 18:32:00,46.0,32.0,-100.00,WSW,251,6.0,22.0,58,0.00,,,0.26,351.000000,,2013-09-28 00:32:00,
2013-09-27 18:52:00,44.0,30.0,-100.00,WSW,240,3.0,11.0,57,0.00,,,0.26,140.000000,,2013-09-28 00:52:00,
2013-09-27 19:01:00,44.0,30.0,-100.00,WSW,240,3.0,11.0,57,0.00,,,0.26,140.000000,,2013-09-28 01:01:00,
2013-09-27 19:12:00,44.0,30.0,-100.00,WSW,240,3.0,11.0,57,0.00,,,0.26,140.000000,,2013-09-28 01:12:00,
2013-09-27 19:21:00,44.0,30.0,-100.00,WSW,240,3.0,11.0,57,0.00,,,0.26,140.000000,,2013-09-28 01:21:00,
2013-09-27 19:32:00,44.0,30.0,-100.00,WSW,240,3.0,11.0,57,0.00,,,0.26,140.000000,,2013-09-28 01:32:00,
2013-09-27 20:12:00,36.0,30.0,-100.00,SW,226,11.0,28.0,78,0.00,,,0.26,2.000000,,2013-09-28 02:12:00,
2013-09-27 20:22:00,36.0,30.0,-100.00,SW,226,11.0,28.0,78,0.00,,,0.26,2.000000,,2013-09-28 02:22:00,
2013-09-27 20:32:00,36.0,30.0,-100.00,SW,226,11.0,28.0,78,0.00,,,0.26,2.000000,,2013-09-28 02:32:00,
2013-09-27 20:34:00,37.0,29.0,-100.00,NW,320,0.0,12.0,72,0.02,,,0.28,0.000000,,2013-09-28 02:34:00,
2013-09-27 20:53:00,37.0,29.0,-100.00,NW,320,0.0,12.0,72,0.02,,,0.28,0.000000,,2013-09-28 02:53:00,
2013-09-27 21:03:00,37.0,29.0,-100.00,NW,320,0.0,12.0,72,0.02,,,0.28,0.000000,,2013-09-28 03:03:00,
2013-09-27 21:12:00,37.0,29.0,-100.00,NW,320,0.0,12.0,72,0.02,,,0.28,0.000000,,2013-09-28 03:12:00,
2013-09-27 21:22:00,37.0,29.0,-100.00,NW,320,0.0,12.0,72,0.02,,,0.28,0.000000,,2013-09-28 03:22:00,
2013-09-27 21:34:00,37.0,31.0,-100.00,ENE,61,6.0,11.0,79,0.00,,,0.28,0.000000,,2013-09-28 03:34:00,
2013-09-27 21:55:00,37.0,31.0,-100.00,ENE,61,6.0,11.0,79,0.00,,,0.28,0.000000,,2013-09-28 03:55:00,
2013-09-27 22:04:00,37.0,31.0,-100.00,ENE,61,6.0,11.0,79,0.00,,,0.28,0.000000,,2013-09-28 04:04:00,
2013-09-27 22:13:00,37.0,31.0,-100.00,ENE,61,6.0,11.0,79,0.00,,,0.28,0.000000,,2013-09-28 04:13:00,
2013-09-27 22:24:00,37.0,31.0,-100.00,ENE,61,6.0,11.0,79,0.00,,,0.28,0.000000,,2013-09-28 04:24:00,
2013-09-27 22:34:00,36.0,31.0,-100.00,ENE,60,7.0,9.0,83,0.00,,,0.28,0.000000,,2013-09-28 04:34:00,
2013-09-27 22:54:00,36.0,31.0,-100.00,ENE,60,7.0,9.0,83,0.00,,,0.28,0.000000,,2013-09-28 04:54:00,
2013-09-27 23:03:00,36.0,31.0,-100.00,ENE,60,7.0,9.0,83,0.00,,,0.28,0.000000,,2013-09-28 05:03:00,
2013-09-27 23:13:00,36.0,31.0,-100.00,ENE,60,7.0,9.0,83,0.00,,,0.28,0.000000,,2013-09-28 05:13:00,
2013-09-27 23:22:00,36.0,31.0,-100.00,ENE,60,7.0,9.0,83,0.00,,,0.28,0.000000,,2013-09-28 05:22:00,
2013-09-27 23:53:00,35.0,30.0,-100.00,ENE,59,7.0,10.0,83,0.00,,,0.28,0.000000,,2013-09-28 05:53:00,